[Iaude] MPEC J41: 2024 JP [a=0.88,e=0.20,i=3.1,H=27.0]
    mpec at cfa.harvard.edu 
    mpec at cfa.harvard.edu
       
    Fri May  3 09:58:05 EDT 2024
    
    
  
M.P.E.C. 2024-J41                                   Issued 2024 May 3, 13:56 UT
     The Minor Planet Electronic Circulars contain information on unusual
         minor planets, routine data on comets and natural satellites,
         and occasional editorial announcements.  They are published
    on behalf of Division F of the International Astronomical Union by the
          Minor Planet Center, Smithsonian Astrophysical Observatory,
                          Cambridge, MA 02138, U.S.A.
			  
             Prepared using the Tamkin Foundation Computer Network
                              MPC at CFA.HARVARD.EDU
            URL https://www.minorplanetcenter.net/    ISSN 1523-6714
                                    2024 JP                                     
Observations:
     K24J00P 1C2024 04 30.46356 15 46 45.08 +11 08 39.3          20.2 GVEJ041703
     K24J00P 1C2024 04 30.46582 15 46 40.91 +11 08 17.0          20.2 GVEJ041703
     K24J00P 1C2024 04 30.46807 15 46 36.84 +11 07 53.9          19.0 GVEJ041703
     K24J00P*KC2024 05 02.94931 14 45 02.64 +04 43 19.9          19.2 GXEJ041L51
     K24J00P KC2024 05 02.95034 14 45 01.21 +04 43 11.3          19.4 GXEJ041L51
     K24J00P KC2024 05 02.95138 14 44 59.81 +04 43 02.7          19.4 GXEJ041L51
     K24J00P KC2024 05 02.96948 14 44 34.52 +04 40 31.1          19.3 GXEJ041L51
     K24J00P KC2024 05 02.97133 14 44 31.94 +04 40 15.9          19.3 GXEJ041L51
     K24J00P KC2024 05 02.97330 14 44 29.26 +04 39 59.4          19.5 GXEJ041L51
     K24J00P KC2024 05 02.98030214 44 31.49 +04 39 03.6          19.3 GXEJ041I93
     K24J00P KC2024 05 02.98494714 44 25.00 +04 38 25.2          19.2 GXEJ041I93
     K24J00P KC2024 05 02.98952414 44 18.62 +04 37 47.1          19.3 GXEJ041I93
     K24J00P KB2024 05 03.01071614 43 49.34 +04 34 55.5          19.5 GXEJ041958
     K24J00P KB2024 05 03.01489514 43 43.53 +04 34 21.9          19.6 GXEJ041958
     K24J00P KB2024 05 03.01907814 43 37.69 +04 33 46.3          19.8 GXEJ041958
     K24J00P KB2024 05 03.02256 14 43 24.444+04 41 05.14         18.7 GXEJ041L87
     K24J00P KB2024 05 03.02867 14 43 15.900+04 40 15.06         18.7 GXEJ041L87
     K24J00P KB2024 05 03.03480 14 43 07.195+04 39 22.97         18.5 GXEJ041L87
     K24J00P KB2024 05 03.06505014 42 51.346+04 34 50.84         19.7 VZEJ041Y05
     K24J00P KB2024 05 03.07026014 42 43.990+04 34 07.72         19.8 VZEJ041Y05
     K24J00P KB2024 05 03.07555014 42 36.526+04 33 24.91         19.3 VZEJ041Y05
     K24J00P KB2024 05 03.09626 14 42 17.31 +04 23 21.0          19.4 GXEJ041W62
     K24J00P KB2024 05 03.11445 14 41 52.64 +04 20 53.5          19.2 GXEJ041W62
     K24J00P KB2024 05 03.13287 14 41 27.57 +04 18 24.2          19.2 GXEJ041W62
     K24J00P KB2024 05 03.28858 14 38 02.854+03 57 35.14         19.5 RZEJ041H36
     K24J00P KB2024 05 03.29277 14 37 57.247+03 57 01.22         19.6 RZEJ041H36
     K24J00P KB2024 05 03.29698 14 37 51.482+03 56 26.95         19.6 RZEJ041H36
     K24J00P mC2024 05 03.37378214 36 13.457+03 46 50.38         19.80GVEJ041I52
     K24J00P mC2024 05 03.37395314 36 13.234+03 46 48.65         19.57GVEJ041I52
     K24J00P mC2024 05 03.37412314 36 12.992+03 46 47.53         19.33GVEJ041I52
     K24J00P mC2024 05 03.37429614 36 12.769+03 46 46.27         19.76GVEJ041I52
Observer details:
703 Catalina Sky Survey.  Observer H. Groeller.  Measurers B. Gray, D. Rankin,
    F. C. Shelly.  0.68-m Schmidt + 10K CCD.
958 Observatoire de Dax.  Observer P. Dupouy.  0.50-m f/4.5 Reflector + CMO.
H36 Sandlot Observatory, Scranton.  Observer G. Hug.  0.56-m f/4.8 reflector +
    CMO.
I52 Steward Observatory, Mt. Lemmon Station.  Observer V. F. Carvajal.
    Measurers T. Beuden, V. F. Carvajal, D. Fay, J. B. Fazekas, D. C. Fuls, A.
    R. Gibbs, A. D. Grauer, H. Groeller, J. K. Hogan, R. A. Kowalski, S. M.
    Larson, G. J. Leonard, D. Rankin, R. L. Seaman, F. C. Shelly, K. W.
    Wierzchos.  1.0-m prime focus + CCD.
I93 St Pardon de Conques.  Observer F. Losse.  0.40-m f/3.7 reflector + CCD.
L51 MARGO, Nauchnyi.  Observer G. Borisov.  0.50-m f/1.9 reflector + CCD.
L87 Moonbase South Observatory, Hakos.  Observer G. Duszanowicz.  0.28-m f/1.9
    reflector + CMO.
W62 Comet Hunter Observatory2, New Ringgold.  Observer J. Maikner.  0.30-m
    f/3.8 Riccardi-Honders + CMO.
Y05 SONEAR Wykrota-CEAMIG, Serra da Piedade.  Observers C. Jacques, A.
    Caetano, E. Pimentel.  Measurer C. Jacques.  0.45-m f/2.9 reflector + CMO.
Orbital elements:
2024 JP                                                  Earth MOID = 0.0143 AU
Epoch 2024 Mar. 31.0 TT = JDT 2460400.5                 MPC                     
M  98.74546              (2000.0)            P               Q                  
n   1.18465122     Peri.   22.04769     +0.30920877     -0.95008852             
a   0.8845907      Node    49.96620     +0.86422851     +0.26252178             
e   0.1981973      Incl.    3.10656     +0.39686147     +0.16856487             
P   0.83           H   27.04          G   0.15           U   6                  
Residuals in seconds of arc
240430 703  0.7-  0.4-    240502 I93  0.1+  0.0     240503 W62  0.1-  0.1+
240430 703  0.4-  0.3+    240503 958  0.0   0.7-    240503 W62  0.2+  0.2+
240430 703  1.0+  0.1+    240503 958  0.3+  0.4+    240503 H36  0.3+  0.4+
240502 L51  0.5-  0.7-    240503 958  0.0   0.5-    240503 H36  1.1+  0.3+
240502 L51  0.3-  0.6-    240503 L87  0.3-  0.8-    240503 H36  0.1-  0.0
240502 L51  0.5+  0.5-    240503 L87  0.8+  0.5+    240503 I52  0.0   0.1+
240502 L51  0.5-  0.2-    240503 L87  0.4-  0.1-    240503 I52  0.1+  0.3-
240502 L51  0.7-  0.1+    240503 Y05  0.3-  0.0     240503 I52  0.1-  0.0
240502 L51  0.1+  0.1+    240503 Y05  0.0   0.4-    240503 I52  0.0   0.1+
240502 I93  0.0   0.1-    240503 Y05  0.4+  0.2+
240502 I93  0.0   0.1+    240503 W62  0.0   0.0
Ephemeris:
2024 JP                  a,e,i = 0.88, 0.20, 3                   q = 0.7093
Date    TT    R. A. (2000) Decl.     Delta      r    Elong.  Phase     V
2024 04 03    22 18 51.6 +20 04 02   0.06240 0.9524    39.4   138.2    27.5
...
2024 04 18    20 49 12.9 +23 23 38   0.02990 0.9947    71.0   107.4    23.4
...
2024 04 26    18 07 28.1 +21 18 45   0.01797 1.0134   113.1    66.0    20.7
...
2024 05 02    15 06 37.0 +07 06 46   0.01917 1.0254   156.4    23.2    19.6
2024 05 03    14 44 05.0 +04 41 03   0.02040 1.0272   159.6    20.0    19.6
2024 05 04    14 24 26.6 +02 30 14   0.02186 1.0290   160.9    18.7    19.8
...
2024 05 10    13 11 25.4 -05 53 57   0.03336 1.0386   149.2    29.9    21.0
...
2024 05 18    12 33 28.9 -10 42 35   0.05196 1.0484   134.3    43.6    22.4
...
2024 06 02    12 16 08.4 -14 41 04   0.08910 1.0581   117.3    58.4    24.0
A. U. Tomatic                (C) Copyright 2024 MPC           M.P.E.C. 2024-J41
    
    
More information about the Iaude
mailing list